Flag for Switzerland Weather past 2 weeks in Altdorf, Uri, Switzerland

Now
64 °F

Mild.


Feels Like: 64 °F
Forecast: 36 / 44 °F
Wind: 9 mph from Northwest

Location: Altdorf

Current Time: Oct 21, 2014 at 5:12:12 PM

Latest Report: Oct 21, 2014 at 4:00 PM


Visibility: N/A

Pressure: 29.85 "Hg

Humidity: 64%

Dew point: 51 °F

Location of AltdorfLocation

Historic Weather in Altdorf — Graph

°F

Altdorf temperature yesterday

Maximum temperature yesterday: 67 °F (at 3:00 PM)
Minimum temperature yesterday: 48 °F (at 9:00 AM)
Average temperature yesterday: 57 °F

Past Weeks' High & Low Weather Summary

 TemperatureHumidityPressure
High77 °F (Oct 9, 2:00 PM)99% (Oct 16, 2:00 AM)30.29 "Hg (Oct 16, 2:00 AM)
Low45 °F (Oct 18, 8:00 AM)29% (Oct 9, 1:00 PM)29.71 "Hg (Oct 12, 10:00 PM)
Average60 °F75%29.94 "Hg
* Reported Oct 6 3:00 PM — Oct 21 3:00 PM, Altdorf, Weather by CustomWeather, © 2014

Note: Actual official high and low records may vary slightly from our data, if they occured in-between our weather recording intervals... More about our weather records

Advertising

Altdorf weather history for previous 24 hours

 ConditionsComfort  
Time TempWeatherWind HumidityBarometerVisibility
3:00 PM
Oct 21
65 °FMild.2 mph73%29.85 "HgN/A
2:00 PM63 °FPartly sunny.1 mph85%29.90 "Hg9 mi
1:00 PM62 °FCool.1 mph83%29.91 "HgN/A
12:00 PM60 °FCool.2 mph87%29.96 "HgN/A
11:00 AM58 °FPartly sunny.No wind92%29.98 "Hg9 mi
10:00 AM58 °FCool.2 mph96%30.00 "HgN/A
9:00 AM57 °FCool.2 mph97%30.00 "HgN/A
8:00 AM56 °FRain. Overcast.2 mph98%30.01 "Hg2 mi
7:00 AM56 °FCool.No wind98%30.00 "HgN/A
6:00 AM57 °FCool.1 mph95%30.01 "HgN/A
5:00 AM57 °FHeavy rain. Overcast.2 mph95%30.03 "Hg6 mi
4:00 AM60 °FCool.3 mph82%30.03 "HgN/A
3:00 AM59 °FCool.2 mph91%30.02 "HgN/A
2:00 AM58 °FHeavy rain. Overcast.13 mph94%30.06 "Hg6 mi
1:00 AM58 °FCool.3 mph97%30.09 "HgN/A
12:00 AM60 °FCool.3 mph88%30.06 "HgN/A
11:00 PM
Oct 20
58 °FPassing clouds.1 mph91%30.06 "Hg9 mi
10:00 PM59 °FCool.2 mph86%30.05 "HgN/A
9:00 PM58 °FCool.2 mph87%30.06 "HgN/A
8:00 PM58 °FPassing clouds.1 mph87%30.06 "Hg11 mi
7:00 PM59 °FCool.1 mph86%30.06 "HgN/A
6:00 PM63 °FMild.2 mph72%30.05 "HgN/A
5:00 PM63 °FPartly sunny.3 mph70%30.06 "Hg14 mi
Weather by CustomWeather, © 2014

See weather overviewHow to use our weather pages